This demonstration page uses our WeatherBlox Daily Observations layout. Learn more.

39.92423, -83.80882

Hourly Observations for April 2, 2020

Temp ( °F °C ) Dew Point ( °F °C ) Humidity (%) Winds ( mph kmh ) Pressure ( in mb ) Visibility ( mi km ) Precip ( " mm )
12:56 am 00:56 Cloudy 42 5.6 40 4.4 92 92 NW 6 9 30.11 1020 10 16.0934 0 0
1:56 am 01:56 Cloudy 42 5.6 41 5 96 96 WNW 5 7 30.12 1020 10 16.0934 0 0
2:56 am 02:56 Cloudy 42 5.6 41 5 96 96 WNW 6 9 30.11 1020 10 16.0934 0 0
3:56 am 03:56 Clear 40 4.4 39 3.9 97 97 NW 5 7 30.11 1020 10 16.0934 0.71 18.034
4:56 am 04:56 Clear 37 2.8 37 2.8 100 100 NW 5 7 30.12 1020 10 16.0934 0.65 16.51
5:56 am 05:56 Clear 35 1.7 35 1.7 100 100 NW 5 7 30.13 1020 8 12.87472 0.7 17.78
6:56 am 06:56 Clear with Mist and Fog 35 1.7 35 1.7 100 100 NW 5 7 30.16 1021 5 8.0467 0.63 16.002
7:11 am 07:11 Clear with Mist and Fog 36 2 36 2 100 100 NW 5 7 30.18 1022 1.75 2.816345 0.14 3.556
7:21 am 07:21 Sunny with Mist and Fog 34 1 34 1 100 100 NW 3 6 30.19 1022 1 1.60934 0.18 4.572
7:26 am 07:26 Sunny with Mist and Fog 36 2 36 2 100 100 WNW 3 6 30.19 1022 2 3.21868 0.18 4.572
7:40 am 07:40 Partly Cloudy with Mist and Fog 36 2 36 2 100 100 NW 3 6 30.2 1023 1.5 2.41401 0.19 4.826
7:44 am 07:44 Mostly Cloudy with Fog 36 2 36 2 100 100 NNW 3 6 30.2 1023 0.5 0.80467 0.19 4.826
7:53 am 07:53 Mostly Cloudy with Fog 36 2 36 2 100 100 NNW 3 6 30.2 1023 0.25 0.402335 0.19 4.826
7:56 am 07:56 Mostly Cloudy with Fog 35 1.7 35 1.7 100 100 NNW 3 6 30.18 1022 0.5 0.80467 0.19 4.826
7:59 am 07:59 Mostly Cloudy with Mist and Fog 36 2 36 2 100 100 NW 3 6 30.2 1023 1 1.60934 0 0
8:07 am 08:07 Mostly Cloudy with Mist and Fog 36 2 36 2 100 100 NNW 5 7 30.21 1023 2 3.21868 0 0
8:11 am 08:11 Partly Cloudy with Mist and Fog 37 3 37 3 100 100 NNW 5 7 30.2 1023 3 4.82802 0 0
8:56 am 08:56 Sunny 42 5.6 41 5 96 96 NW 6 9 30.19 1022 9 14.48406 0 0
9:56 am 09:56 Sunny 47 8.3 41 5 80 80 NNE 7 11 30.19 1023 10 16.0934 0 0
10:56 am 10:56 Partly Cloudy 50 10 40 4.4 68 68 NNW 7 11 30.2 1023 10 16.0934 0 0
11:20 am 11:20 Mostly Cloudy 50 10 37 3 62 62 VRB 7 11 30.19 1022 10 16.0934 0 0
11:29 am 11:29 Partly Cloudy 52 11 37 3 58 58 N 8 13 30.19 1022 10 16.0934 0 0
11:56 am 11:56 Partly Cloudy 52 11.1 36 2.2 55 55 NW 10 17 30.19 1022 10 16.0934 0 0
12:56 pm 12:56 Mostly Cloudy 53 11.7 35 1.7 51 51 VRB 5 7 30.18 1022 10 16.0934 0 0
1:56 pm 13:56 Mostly Cloudy 54 12.2 36 2.2 51 51 NNW 8 13 30.16 1021 10 16.0934 0 0
2:56 pm 14:56 Mostly Sunny 55 12.8 35 1.7 47 47 NNW 9 15 30.13 1020 10 16.0934 0 0
3:56 pm 15:56 Sunny 57 13.9 35 1.7 44 44 N 7 11 30.11 1020 10 16.0934 0 0
4:56 pm 16:56 Sunny 57 13.9 35 1.7 44 44 NNW 8 13 30.11 1020 10 16.0934 0 0
6:56 pm 18:56 Sunny 56 13.3 35 1.7 46 46 NW 5 7 30.11 1020 10 16.0934 0 0
9:56 pm 21:56 Clear 46 7.8 39 3.9 77 77 W 5 7 30.12 1020 10 16.0934 0.01 0.254
10:56 pm 22:56 Clear 44 6.7 39 3.9 83 83 WNW 3 6 30.11 1020 10 16.0934 0 0
11:56 pm 23:56 Clear 44 6.7 37 2.8 76 76 Calm 30.11 1020 10 16.0934 0 0

Powered by AerisWeather